{"data":{"norad_id":55497,"intl_designator":"2023-015BA","name":"STARLINK-5363","alt_names":[],"object_type":"PAYLOAD","status":"ACTIVE","operator":null,"country":"US","launch_date":"2023-02-02","launch_site_code":"AFETR","launch_vehicle":null,"mission":null,"orbit_class":"UNKNOWN","rcs_meters":null,"size_class":null,"mass_kg":null,"dimensions":null,"purposes":["comms"],"wikipedia_slug":null,"has_3d_model":false,"image_url":null,"decayed_at":null,"tle_current":{"epoch":"2026-09-20T14:34:31.289376Z","epoch_age_seconds":91146,"freshness":"FRESH","line1":"1 55497U 23015BA  26263.60730659 -.00000218  00000+0  15960-5 0  9993","line2":"2 55497  43.0051 319.0790 0001630 282.1244  77.9425 15.27576563200404","mean_motion":15.27576563,"eccentricity":0.000163,"inclination_deg":43.0051,"raan_deg":319.079,"arg_perigee_deg":282.1244,"mean_anomaly_deg":77.9425,"bstar":1.596e-6,"rev_number":20040,"period_min":94.266960810919,"perigee_km":481.94101266221,"apogee_km":484.17776268459,"semimajor_km":6861.1963876734,"source":"CELESTRAK","updated_at":"2026-09-21T09:00:33.260360Z"}}}